Regional Weather Roundup
Issued by NWS

Home | Current Version | Previous Version | Graphics & Text | Print | Product List | Glossary On
Versions: 1 2 3 4 5 6 7 8 9 10 11 12 13 14 15 16 17 18 19 20 21 22 23 24 25 26 27 28 29 30 31 32 33 34 35 36 37 38 39 40 41 42 43 44 45 46 47 48 49 50
000
ASUS43 KMPX 010301
RWRMN
WEATHER ROUNDUP FOR MINNESOTA
NATIONAL WEATHER SERVICE TWIN CITIES/CHANHASSEN MN
900 PM CST SAT FEB 28 2015


NOTE: "FAIR" INDICATES FEW OR NO CLOUDS BELOW 12,000 FEET WITH NO
SIGNIFICANT WEATHER AND/OR OBSTRUCTIONS TO VISIBILITY. N/A MEANS
CURRENT SKY AND/OR WEATHER CONDITIONS ARE NOT AVAILABLE.

MNZ060>063-068>070-010400-
   Twin Cities Metro

CITY           SKY/WX    TMP DP  RH WIND       PRES   REMARKS
TWIN CITIES    MOCLDY    13   2  61 S12       30.34F WCI  -1
ST PAUL        CLOUDY    13   3  64 S9        30.37F WCI   1
CRYSTAL        CLOUDY    15   4  61 S14       30.32F WCI   0
BLAINE         CLOUDY    16   7  67 S12G17    30.31F WCI   3
LAKEVILLE      CLOUDY    10   3  72 S7        30.34F WCI   0
EDEN PRAIRIE   PTCLDY    13   3  64 S14       30.32F WCI  -2
SOUTH ST PAUL  CLOUDY    13   3  64 S9        30.35F WCI   1
LAKE ELMO      CLOUDY    14   5  67 S9        30.36S WCI   2
$$
MNZ001>005-007-008-013>017-022>024-027-028-010400-
   Northwest Minnesota

CITY           SKY/WX    TMP DP  RH WIND       PRES   REMARKS
BEMIDJI        LGT SNOW  17  13  85 S9        30.11F WCI   6
HALLOCK        MOCLDY    10   3  72 W10       30.11S WCI  -3
ROSEAU         LGT SNOW  19  14  79 SW8       30.06S WCI   9
WARROAD        PTCLDY    18  14  86 SW7       30.06F WCI   8
THIEF RVR FALL CLOUDY    16  14  93 W13       30.11S WCI   2
CROOKSTON      FAIR      10   7  85 W9        30.16S WCI  -2
FOSSTON        LGT SNOW  18  16  93 SW13      30.11S VSB 3/4 WCI   4
DETROIT LAKES  LGT SNOW  21  18  86 SW12G20   30.14S WCI   9
MOORHEAD       CLOUDY    18  10  73 NW17      30.19R WCI   2
PARK RAPIDS    LGT SNOW  18  13  80 S13       30.13F WCI   5
MAHNOMEN       LGT SNOW  19  17  90 S14       30.12S WCI   6
$$
MNZ006-009>011-018-025>026-010400-
   North Central Minnesota

CITY           SKY/WX    TMP DP  RH WIND       PRES   REMARKS
BAUDETTE       LGT SNOW  20  16  84 S13       30.05F FOG     WCI   7
FLAG ISLAND    LGT SNOW  19  16  86 SW10      30.03F WCI   8
INTL FALLS     CLOUDY    19   4  51 VRB6      30.10F WCI  11
WASKISH        LGT SNOW  19  14  79 S13G18    30.09F WCI   7
BIG FORK       LGT SNOW  18   9  68 S12       30.13F WCI   5
LONGVILLE      FLURRIES  14  10  85 S10       30.17S WCI   1
GRAND RAPIDS   PTCLDY    14   7  73 S13       30.16F WCI   0
CRANE LAKE     CLOUDY    18   5  57 S9G18     30.17F WCI   6
ORR            MOCLDY    16   3  57 S13G18    30.12F WCI   2
COOK           MOCLDY    16   7  67 S8G22     30.16F WCI   5
WALKER         LGT SNOW  16  12  84 S7        30.13F WCI   7
$$
MNZ012-019>021-037-010400-
   Northeast Minnesota

CITY           SKY/WX    TMP DP  RH WIND       PRES   REMARKS
DULUTH         MOCLDY    15   2  56 SW14      30.21F WCI   0
ELY            MOCLDY    16   0  48 SW12G17   30.17S WCI   3
HIBBING        LGT SNOW  16   5  62 SW7G18    30.18F WCI   6
EVELETH        PTCLDY    18   5  57 SW10G20   30.19F WCI   6
DULUTH HARBOR  PTCLDY    18   3  53 SW12G17   30.30F WCI   5
SILVER BAY     MOCLDY    18   7  62 S13G21    30.22F WCI   4
GRAND MARAIS     N/A     22   8  55 SW31G37   30.26F WCI   4
G MARAIS ARPRT CLOUDY    12   1  62 S12G20    30.16F WCI  -2
$$
MNZ029>031-032-039>041-046>048-054>057-064-010400-
   West Central Minnesota

CITY           SKY/WX    TMP DP  RH WIND       PRES   REMARKS
FERGUS FALLS   LGT SNOW  19  14  79 S12       30.21S WCI   7
MORRIS         CLOUDY    19  14  79 S12       30.18F WCI   7
ALEXANDRIA     CLOUDY    17  13  84 S12       30.18F WCI   4
ELBOW LAKE     CLOUDY    18  14  83 S15       30.17F WCI   4
WADENA         FLURRIES  16  10  79 S8        30.16S WCI   5
APPLETON       CLOUDY    19  14  79 S13       30.20S WCI   7
BENSON         CLOUDY    18  12  79 S13       30.21S WCI   4
ORTONVILLE     CLOUDY    19  14  79 SE5       30.18S WCI  13
MADISON        CLOUDY    19  14  79 S9        30.20S WCI   9
WILLMAR        CLOUDY    18  10  73 S12       30.24F WCI   5
$$
MNZ033>034-036-042>043-049>051-058-059-010400-
   Central Minnesota

CITY           SKY/WX    TMP DP  RH WIND       PRES   REMARKS
ST CLOUD       CLOUDY    13   6  74 S10       30.26F WCI   0
SAUK CENTRE    CLOUDY    16  13  87 S9        30.21F WCI   4
PAYNESVILLE    CLOUDY    14  11  87 SE12      30.24F WCI   1
PINE RIVER     CLOUDY    16  10  79 S10G16    30.20F WCI   3
BRAINERD       CLOUDY    14   8  77 S10       30.21F WCI   1
STAPLES        CLOUDY    14  10  85 S12       30.18F WCI   0
LONG PRAIRIE   CLOUDY    16  12  86 S12       30.20F WCI   3
LITTLE FALLS   FLURRIES  16  10  79 S7        30.23F WCI   6
LITCHFIELD     CLOUDY    16  12  86 S6        30.26F WCI   7
MAPLE LAKE     FLURRIES  15   9  79 S9        30.29F WCI   3
$$
MNZ037-044-045-052-053-010400-
   East Central Minnesota

CITY           SKY/WX    TMP DP  RH WIND       PRES   REMARKS
PRINCETON      CLOUDY    16   7  67 S12       30.28F WCI   3
MORA           MOCLDY    14   5  67 S12       30.29F WCI   0
RUSH CITY      CLOUDY    13   4  68 S9        30.31F WCI   0
MOOSE LAKE     CLOUDY    14   3  62 S8G16     30.24F WCI   3
HINCKLEY       CLOUDY    14   5  67 S10       30.29F WCI   1
CLOQUET        CLOUDY    14   1  57 S8        30.22F WCI   3
MCGREGOR       PTCLDY    18  10  73 S10       30.22F WCI   6
$$
MNZ071>073-080-081-089-090-097-098-010400-
   Southwest Minnesota

CITY           SKY/WX    TMP DP  RH WIND       PRES   REMARKS
MONTEVIDEO     CLOUDY    18  12  79 S13       30.22F WCI   4
GRANITE FALLS  MOCLDY    16  11  82 SE14      30.24F WCI   1
CANBY          MOCLDY    19  13  80 S7        30.19F WCI   9
MARSHALL       CLEAR     18  10  73 S14       30.22F WCI   4
REDWOOD FALLS  CLEAR     15  10  80 S14       30.26F WCI   0
OLIVIA         CLEAR     16  12  86 S10       30.25F WCI   3
PIPESTONE      CLEAR     16  10  79 S16       30.18F WCI   0
WINDOM         CLEAR     16  10  79 S14       30.25S WCI   1
WORTHINGTON    CLEAR     27   9  46 S16       30.26S WCI  14
JACKSON        CLEAR     18  10  73 S14       30.27F WCI   4
TRACY          CLEAR     17  12  80 S15G22    30.22F WCI   2
SLAYTON        CLEAR     15  10  80 S16       30.22F WCI   0
$$
MNZ065>067-074>077-082>085-091>093-010400-
   South Central Minnesota

CITY           SKY/WX    TMP DP  RH WIND       PRES   REMARKS
MANKATO        PTCLDY    12   1  62 S12       30.32F WCI  -2
NEW ULM        CLOUDY    16  10  79 S13       30.30S WCI   2
ST JAMES       CLOUDY    16  12  86 SE10      30.31S WCI   3
FAIRMONT       CLEAR     16   9  73 SE13      30.30S WCI   2
GLENCOE        CLOUDY    14   9  81 S9        30.29F WCI   2
FARIBAULT      CLOUDY    12   7  79 S10       30.34F WCI  -1
OWATONNA       CLOUDY    12   5  73 S17       30.33F WCI  -5
ALBERT LEA     CLOUDY    12   7  79 S9        30.34F WCI   0
$$
MNZ078>079-086>088-094>096-010400-
   Southeast Minnesota

CITY           SKY/WX    TMP DP  RH WIND       PRES   REMARKS
ROCHESTER      CLEAR      8   1  73 S12       30.36R WCI  -7
RED WING       CLOUDY    12   1  62 S5        30.38F WCI   4
STANTON        CLOUDY    13   5  69 S10G16    30.34F WCI   0
DODGE CENTER   CLOUDY    10   5  79 S10       30.34F WCI  -3
WINONA         CLOUDY    18   3  53 S5        30.42F WCI  11
AUSTIN         CLOUDY     9   3  78 S5        30.36S WCI   0
PRESTON        CLOUDY    11   2  67 S12       30.37S WCI  -3
$$
ABBREVIATIONS USED IN REMARKS
   TC - TEMPERATURES IN CELSIUS
  WCI - WIND CHILL INDEX
   HX - HEAT INDEX
  VSB - VISIBILITY
$$



USA.gov is the U.S. government's official web portal to all federal, state and local government web resources and services.